Year,Month,Day,Hour,Minute,Value (Times are PST for temperature in C)
2014,07,14,00,00,21.30
2014,07,14,00,01,21.30
2014,07,14,00,02,21.40
2014,07,14,00,03,21.40
2014,07,14,00,04,21.50
2014,07,14,00,05,21.60
2014,07,14,00,06,21.60
2014,07,14,00,07,21.70
2014,07,14,00,08,21.70
2014,07,14,00,09,21.80
2014,07,14,00,10,21.80
2014,07,14,00,11,21.90
2014,07,14,00,12,22.00
2014,07,14,00,13,22.00
2014,07,14,00,14,22.10
2014,07,14,00,15,22.20
2014,07,14,00,16,22.20
2014,07,14,00,17,22.20
2014,07,14,00,18,22.30
2014,07,14,00,19,22.30
2014,07,14,00,20,22.40
2014,07,14,00,21,22.40
2014,07,14,00,22,22.50
2014,07,14,00,23,22.50
2014,07,14,00,24,22.50
2014,07,14,00,25,22.60
2014,07,14,00,26,22.60
2014,07,14,00,27,22.60
2014,07,14,00,28,22.70
2014,07,14,00,29,22.70
2014,07,14,00,30,22.80
2014,07,14,00,31,22.80
2014,07,14,00,32,22.90
2014,07,14,00,33,22.90
2014,07,14,00,34,23.00
2014,07,14,00,35,23.10
2014,07,14,00,36,23.10
2014,07,14,00,37,23.20
2014,07,14,00,38,23.20
2014,07,14,00,39,23.30
2014,07,14,00,40,23.40
2014,07,14,00,41,23.40
2014,07,14,00,42,23.40
2014,07,14,00,43,23.50
2014,07,14,00,44,23.60
2014,07,14,00,45,23.60
2014,07,14,00,46,23.70
2014,07,14,00,47,23.90
2014,07,14,00,48,24.10
2014,07,14,00,49,24.20
2014,07,14,00,50,24.30
2014,07,14,00,51,24.30
2014,07,14,00,52,24.40
2014,07,14,00,53,24.50
2014,07,14,00,54,24.60
2014,07,14,00,55,24.70
2014,07,14,00,56,24.70
2014,07,14,00,57,24.80
2014,07,14,00,58,24.90
2014,07,14,00,59,24.90
2014,07,14,01,00,25.00
2014,07,14,01,01,25.00
2014,07,14,01,02,25.10
2014,07,14,01,03,25.10
2014,07,14,01,04,25.20
2014,07,14,01,05,25.20
2014,07,14,01,06,25.30
2014,07,14,01,07,25.30
2014,07,14,01,08,25.30
2014,07,14,01,09,25.20
2014,07,14,01,10,25.20
2014,07,14,01,11,25.10
2014,07,14,01,12,25.00
2014,07,14,01,13,25.00
2014,07,14,01,14,25.00
2014,07,14,01,15,25.10
2014,07,14,01,16,25.10
2014,07,14,01,17,25.10
2014,07,14,01,18,25.10
2014,07,14,01,19,25.10
2014,07,14,01,20,25.20
2014,07,14,01,21,25.20
2014,07,14,01,22,25.30
2014,07,14,01,23,25.30
2014,07,14,01,24,25.30
2014,07,14,01,25,25.40
2014,07,14,01,26,25.40
2014,07,14,01,27,25.40
2014,07,14,01,28,25.40
2014,07,14,01,29,25.40
2014,07,14,01,30,25.40
2014,07,14,01,31,25.40
2014,07,14,01,32,25.40
2014,07,14,01,33,25.40
2014,07,14,01,34,25.40
2014,07,14,01,35,25.40
2014,07,14,01,36,25.40
2014,07,14,01,37,25.40
2014,07,14,01,38,25.40
2014,07,14,01,39,25.40
2014,07,14,01,40,25.30
2014,07,14,01,41,25.30
2014,07,14,01,42,25.30
2014,07,14,01,43,25.40
2014,07,14,01,44,25.40
2014,07,14,01,45,25.40
2014,07,14,01,46,25.40
2014,07,14,01,47,25.40
2014,07,14,01,48,25.40
2014,07,14,01,49,25.50
2014,07,14,01,50,25.50
2014,07,14,01,51,25.50
2014,07,14,01,52,25.50
2014,07,14,01,53,25.50
2014,07,14,01,54,25.50
2014,07,14,01,55,25.40
2014,07,14,01,56,25.40
2014,07,14,01,57,25.40
2014,07,14,01,58,25.30
2014,07,14,01,59,25.30
2014,07,14,02,00,25.30
2014,07,14,02,01,25.30
2014,07,14,02,02,25.30
2014,07,14,02,03,25.30
2014,07,14,02,04,25.30
2014,07,14,02,05,25.30
2014,07,14,02,06,25.30
2014,07,14,02,07,25.40
2014,07,14,02,08,25.50
2014,07,14,02,09,25.50
2014,07,14,02,10,25.60
2014,07,14,02,11,25.60
2014,07,14,02,12,25.70
2014,07,14,02,13,25.70
2014,07,14,02,14,25.70
2014,07,14,02,15,25.70
2014,07,14,02,16,25.70
2014,07,14,02,17,25.80
2014,07,14,02,18,25.80
2014,07,14,02,19,25.80
2014,07,14,02,20,25.80
2014,07,14,02,21,25.80
2014,07,14,02,22,25.80
2014,07,14,02,23,25.80
2014,07,14,02,24,25.80
2014,07,14,02,25,25.90
2014,07,14,02,26,25.90
2014,07,14,02,27,25.90
2014,07,14,02,28,25.90
2014,07,14,02,29,25.90
2014,07,14,02,30,25.80
2014,07,14,02,31,25.90
2014,07,14,02,32,25.80
2014,07,14,02,33,25.80
2014,07,14,02,34,25.80
2014,07,14,02,35,25.80
2014,07,14,02,36,25.70
2014,07,14,02,37,25.70
2014,07,14,02,38,25.60
2014,07,14,02,39,25.60
2014,07,14,02,40,25.50
2014,07,14,02,41,25.40
2014,07,14,02,42,25.40
2014,07,14,02,43,25.30
2014,07,14,02,44,25.30
2014,07,14,02,45,25.20
2014,07,14,02,46,25.10
2014,07,14,02,47,25.10
2014,07,14,02,48,25.00
2014,07,14,02,49,24.90
2014,07,14,02,50,24.90
2014,07,14,02,51,24.80
2014,07,14,02,52,24.70
2014,07,14,02,53,24.70
2014,07,14,02,54,24.60
2014,07,14,02,55,24.50
2014,07,14,02,56,24.40
2014,07,14,02,57,24.40
2014,07,14,02,58,24.30
2014,07,14,02,59,24.30
2014,07,14,03,00,24.20
2014,07,14,03,01,24.10
2014,07,14,03,02,24.10
2014,07,14,03,03,24.00
2014,07,14,03,04,24.00
2014,07,14,03,05,23.90
2014,07,14,03,06,23.90
2014,07,14,03,07,23.80
2014,07,14,03,08,23.70
2014,07,14,03,09,23.70
2014,07,14,03,10,23.60
2014,07,14,03,11,23.60
2014,07,14,03,12,23.50
2014,07,14,03,13,23.50
2014,07,14,03,14,23.40
2014,07,14,03,15,23.30
2014,07,14,03,16,23.20
2014,07,14,03,17,23.20
2014,07,14,03,18,23.10
2014,07,14,03,19,23.00
2014,07,14,03,20,22.90
2014,07,14,03,21,22.90
2014,07,14,03,22,22.80
2014,07,14,03,23,22.70
2014,07,14,03,24,22.60
2014,07,14,03,25,22.60
2014,07,14,03,26,22.50
2014,07,14,03,27,22.40
2014,07,14,03,28,22.30
2014,07,14,03,29,22.30
2014,07,14,03,30,22.20
2014,07,14,03,31,22.10
2014,07,14,03,32,22.00
2014,07,14,03,33,22.00
2014,07,14,03,34,21.90
2014,07,14,03,35,21.80
2014,07,14,03,36,21.80
2014,07,14,03,37,21.70
2014,07,14,03,38,21.60
2014,07,14,03,39,21.60
2014,07,14,03,40,21.50
2014,07,14,03,41,21.40
2014,07,14,03,42,21.40
2014,07,14,03,43,21.30
2014,07,14,03,44,21.30
2014,07,14,03,45,21.30
2014,07,14,03,46,21.20
2014,07,14,03,47,21.20
2014,07,14,03,48,21.10
2014,07,14,03,49,21.10
2014,07,14,03,50,21.00
2014,07,14,03,51,21.00
2014,07,14,03,52,20.90
2014,07,14,03,53,20.90
2014,07,14,03,54,20.90
2014,07,14,03,55,20.80
2014,07,14,03,56,20.80
2014,07,14,03,57,20.80
2014,07,14,03,58,20.70
2014,07,14,03,59,20.70
2014,07,14,04,00,20.70
2014,07,14,04,01,20.60
2014,07,14,04,02,20.60
2014,07,14,04,03,20.60
2014,07,14,04,04,20.50
2014,07,14,04,05,20.50
2014,07,14,04,06,20.40
2014,07,14,04,07,20.40
2014,07,14,04,08,20.30
2014,07,14,04,09,20.30
2014,07,14,04,10,20.30
2014,07,14,04,11,20.20
2014,07,14,04,12,20.20
2014,07,14,04,13,20.20
2014,07,14,04,14,20.10
2014,07,14,04,15,20.00
2014,07,14,04,16,20.00
2014,07,14,04,17,20.00
2014,07,14,04,18,19.90
2014,07,14,04,19,19.90
2014,07,14,04,20,19.90
2014,07,14,04,21,19.80
2014,07,14,04,22,19.80
2014,07,14,04,23,19.80
2014,07,14,04,24,19.70
2014,07,14,04,25,19.70
2014,07,14,04,26,19.60
2014,07,14,04,27,19.60
2014,07,14,04,28,19.50
2014,07,14,04,29,19.40
2014,07,14,04,30,19.30
2014,07,14,04,31,19.30
2014,07,14,04,32,19.20
2014,07,14,04,33,19.20
2014,07,14,04,34,19.10
2014,07,14,04,35,19.00
2014,07,14,04,36,19.00
2014,07,14,04,37,18.90
2014,07,14,04,38,18.90
2014,07,14,04,39,18.80
2014,07,14,04,40,18.70
2014,07,14,04,41,18.70
2014,07,14,04,42,18.60
2014,07,14,04,43,18.50
2014,07,14,04,44,18.50
2014,07,14,04,45,18.40
2014,07,14,04,46,18.30
2014,07,14,04,47,18.30
2014,07,14,04,48,18.30
2014,07,14,04,49,18.30
2014,07,14,04,50,18.20
2014,07,14,04,51,18.20
2014,07,14,04,52,18.20
2014,07,14,04,53,18.10
2014,07,14,04,54,18.10
2014,07,14,04,55,18.10
2014,07,14,04,56,18.00
2014,07,14,04,57,18.00
2014,07,14,04,58,17.90
2014,07,14,04,59,17.80
2014,07,14,05,00,17.80
2014,07,14,05,01,17.70
2014,07,14,05,02,17.70
2014,07,14,05,03,17.60
2014,07,14,05,04,17.60
2014,07,14,05,05,17.50
2014,07,14,05,06,17.50
2014,07,14,05,07,17.50
2014,07,14,05,08,17.40
2014,07,14,05,09,17.40
2014,07,14,05,10,17.30
2014,07,14,05,11,17.30
2014,07,14,05,12,17.30
2014,07,14,05,13,17.20
2014,07,14,05,14,17.20
2014,07,14,05,15,17.10
2014,07,14,05,16,17.10
2014,07,14,05,17,17.10
2014,07,14,05,18,17.00
2014,07,14,05,19,17.00
2014,07,14,05,20,16.90
2014,07,14,05,21,16.90
2014,07,14,05,22,16.90
2014,07,14,05,23,16.80
2014,07,14,05,24,16.80
2014,07,14,05,25,16.80
2014,07,14,05,26,16.70
2014,07,14,05,27,16.70
2014,07,14,05,28,16.70
2014,07,14,05,29,16.60
2014,07,14,05,30,16.60
2014,07,14,05,31,16.50
2014,07,14,05,32,16.50
2014,07,14,05,33,16.50
2014,07,14,05,34,16.40
2014,07,14,05,35,16.30
2014,07,14,05,36,16.30
2014,07,14,05,37,16.30
2014,07,14,05,38,16.30
2014,07,14,05,39,16.20
2014,07,14,05,40,16.20
2014,07,14,05,41,16.20
2014,07,14,05,42,16.20
2014,07,14,05,43,16.20
2014,07,14,05,44,16.20
2014,07,14,05,45,16.10
2014,07,14,05,46,16.10
2014,07,14,05,47,16.10
2014,07,14,05,48,16.10
2014,07,14,05,49,16.10
2014,07,14,05,50,16.10
2014,07,14,05,51,16.10
2014,07,14,05,52,16.10
2014,07,14,05,53,16.10
2014,07,14,05,54,16.10
2014,07,14,05,55,16.10
2014,07,14,05,56,16.00
2014,07,14,05,57,16.00
2014,07,14,05,58,16.00
2014,07,14,05,59,16.00
2014,07,14,06,00,16.00
2014,07,14,06,01,16.00
2014,07,14,06,02,16.00
2014,07,14,06,03,15.90
2014,07,14,06,04,15.90
2014,07,14,06,05,15.90
2014,07,14,06,06,15.90
2014,07,14,06,07,15.90
2014,07,14,06,08,15.90
2014,07,14,06,09,15.90
2014,07,14,06,10,15.90
2014,07,14,06,11,15.90
2014,07,14,06,12,15.90
2014,07,14,06,13,15.90
2014,07,14,06,14,15.90
2014,07,14,06,15,15.90
2014,07,14,06,16,15.90
2014,07,14,06,17,15.90
2014,07,14,06,18,15.90
2014,07,14,06,19,15.90
2014,07,14,06,20,15.90
2014,07,14,06,21,15.90
2014,07,14,06,22,15.90
2014,07,14,06,23,15.90
2014,07,14,06,24,15.90
2014,07,14,06,25,15.90
2014,07,14,06,26,15.90
2014,07,14,06,27,16.00
2014,07,14,06,28,16.00
2014,07,14,06,29,16.00
2014,07,14,06,30,16.00
2014,07,14,06,31,16.00
2014,07,14,06,32,16.10
2014,07,14,06,33,16.10
2014,07,14,06,34,16.10
2014,07,14,06,35,16.10
2014,07,14,06,36,16.10
2014,07,14,06,37,16.20
2014,07,14,06,38,16.20
2014,07,14,06,39,16.20
2014,07,14,06,40,16.30
2014,07,14,06,41,16.30
2014,07,14,06,42,16.30
2014,07,14,06,43,16.40
2014,07,14,06,44,16.40
2014,07,14,06,45,16.50
2014,07,14,06,46,16.50
2014,07,14,06,47,16.60
2014,07,14,06,48,16.60
2014,07,14,06,49,16.70
2014,07,14,06,50,16.80
2014,07,14,06,51,16.80
2014,07,14,06,52,16.80
2014,07,14,06,53,16.90
2014,07,14,06,54,17.00
2014,07,14,06,55,17.10
2014,07,14,06,56,17.10
2014,07,14,06,57,17.20
2014,07,14,06,58,17.30
2014,07,14,06,59,17.30
2014,07,14,07,00,17.40
2014,07,14,07,01,17.40
2014,07,14,07,02,17.50
2014,07,14,07,03,17.60
2014,07,14,07,04,17.70
2014,07,14,07,05,17.80
2014,07,14,07,06,17.90
2014,07,14,07,07,17.90
2014,07,14,07,08,18.00
2014,07,14,07,09,18.10
2014,07,14,07,10,18.10
2014,07,14,07,11,18.20
2014,07,14,07,12,18.20
2014,07,14,07,13,18.20
2014,07,14,07,14,18.30
2014,07,14,07,15,18.30
2014,07,14,07,16,18.40
2014,07,14,07,17,18.40
2014,07,14,07,18,18.50
2014,07,14,07,19,18.60
2014,07,14,07,20,18.60
2014,07,14,07,21,18.70
2014,07,14,07,22,18.70
2014,07,14,07,23,18.70
2014,07,14,07,24,18.80
2014,07,14,07,25,18.80
2014,07,14,07,26,18.80
2014,07,14,07,27,18.90
2014,07,14,07,28,19.00
2014,07,14,07,29,19.00
2014,07,14,07,30,19.10
2014,07,14,07,31,19.10
2014,07,14,07,32,19.10
2014,07,14,07,33,19.10
2014,07,14,07,34,19.10
2014,07,14,07,35,19.10
2014,07,14,07,36,19.10
2014,07,14,07,37,19.10
2014,07,14,07,38,19.20
2014,07,14,07,39,19.20
2014,07,14,07,40,19.30
2014,07,14,07,41,19.40
2014,07,14,07,42,19.50
2014,07,14,07,43,19.60
2014,07,14,07,44,19.80
2014,07,14,07,45,19.90
2014,07,14,07,46,20.00
2014,07,14,07,47,20.10
2014,07,14,07,48,20.20
2014,07,14,07,49,20.30
2014,07,14,07,50,20.40
2014,07,14,07,51,20.50
2014,07,14,07,52,20.60
2014,07,14,07,53,20.60
2014,07,14,07,54,20.60
2014,07,14,07,55,20.60
2014,07,14,07,56,20.60
2014,07,14,07,57,20.60
2014,07,14,07,58,20.70
2014,07,14,07,59,20.70
2014,07,14,08,00,20.70
2014,07,14,08,01,20.70
2014,07,14,08,02,20.70
2014,07,14,08,03,20.70
2014,07,14,08,04,20.70
2014,07,14,08,05,20.70
2014,07,14,08,06,20.60
2014,07,14,08,07,20.60
2014,07,14,08,08,20.60
2014,07,14,08,09,20.50
2014,07,14,08,10,20.50
2014,07,14,08,11,20.40
2014,07,14,08,12,20.40
2014,07,14,08,13,20.40
2014,07,14,08,14,20.40
2014,07,14,08,15,20.40
2014,07,14,08,16,20.40
2014,07,14,08,17,20.40
2014,07,14,08,18,20.50
2014,07,14,08,19,20.50
2014,07,14,08,20,20.60
2014,07,14,08,21,20.60
2014,07,14,08,22,20.70
2014,07,14,08,23,20.70
2014,07,14,08,24,20.80
2014,07,14,08,25,20.90
2014,07,14,08,26,20.90
2014,07,14,08,27,20.90
2014,07,14,08,28,21.00
2014,07,14,08,29,21.00
2014,07,14,08,30,21.10
2014,07,14,08,31,21.10
2014,07,14,08,32,21.20
2014,07,14,08,33,21.30
2014,07,14,08,34,21.30
2014,07,14,08,35,21.40
2014,07,14,08,36,21.50
2014,07,14,08,37,21.60
2014,07,14,08,38,21.60
2014,07,14,08,39,21.70
2014,07,14,08,40,21.70
2014,07,14,08,41,21.70
2014,07,14,08,42,21.80
2014,07,14,08,43,21.80
2014,07,14,08,44,21.80
2014,07,14,08,45,21.90
2014,07,14,08,46,21.90
2014,07,14,08,47,21.90
2014,07,14,08,48,21.90
2014,07,14,08,49,21.90
2014,07,14,08,50,22.00
2014,07,14,08,51,22.00
2014,07,14,08,52,22.10
2014,07,14,08,53,22.10
2014,07,14,08,54,22.20
2014,07,14,08,55,22.20
2014,07,14,08,56,22.20
2014,07,14,08,57,22.30
2014,07,14,08,58,22.40
2014,07,14,08,59,22.40
2014,07,14,09,00,22.50
2014,07,14,09,01,22.60
2014,07,14,09,02,22.60
2014,07,14,09,03,22.70
2014,07,14,09,04,22.70
2014,07,14,09,05,22.70
2014,07,14,09,06,22.60
2014,07,14,09,07,22.60
2014,07,14,09,08,22.50
2014,07,14,09,09,22.50
2014,07,14,09,10,22.40
2014,07,14,09,11,22.20
2014,07,14,09,12,22.10
2014,07,14,09,13,22.00
2014,07,14,09,14,21.80
2014,07,14,09,15,21.70
2014,07,14,09,16,21.70
2014,07,14,09,17,21.60
2014,07,14,09,18,21.60
2014,07,14,09,19,21.60
2014,07,14,09,20,21.60
2014,07,14,09,21,21.60
2014,07,14,09,22,21.60
2014,07,14,09,23,21.50
2014,07,14,09,24,21.50
2014,07,14,09,25,21.60
2014,07,14,09,26,21.60
2014,07,14,09,27,21.60
2014,07,14,09,28,21.60
2014,07,14,09,29,21.60
2014,07,14,09,30,21.70
2014,07,14,09,31,21.70
2014,07,14,09,32,21.60
2014,07,14,09,33,21.60
2014,07,14,09,34,21.60
2014,07,14,09,35,21.60
2014,07,14,09,36,21.50
2014,07,14,09,37,21.50
2014,07,14,09,38,21.60
2014,07,14,09,39,21.60
2014,07,14,09,40,21.50
2014,07,14,09,41,21.50
2014,07,14,09,42,21.40
2014,07,14,09,43,21.40
2014,07,14,09,44,21.50
2014,07,14,09,45,21.50
2014,07,14,09,46,21.50
2014,07,14,09,47,21.40
2014,07,14,09,48,21.40
2014,07,14,09,49,21.40
2014,07,14,09,50,21.40
2014,07,14,09,51,21.40
2014,07,14,09,52,21.30
2014,07,14,09,53,21.30
2014,07,14,09,54,21.30
2014,07,14,09,55,21.30
2014,07,14,09,56,21.30
2014,07,14,09,57,21.30
2014,07,14,09,58,21.40
2014,07,14,09,59,21.60
2014,07,14,10,00,21.70
2014,07,14,10,01,21.80
2014,07,14,10,02,21.90
2014,07,14,10,03,22.00
2014,07,14,10,04,22.10
2014,07,14,10,05,22.20
2014,07,14,10,06,22.20
2014,07,14,10,07,22.30
2014,07,14,10,08,22.40
2014,07,14,10,09,22.40
2014,07,14,10,10,22.50
2014,07,14,10,11,22.50
2014,07,14,10,12,22.50
2014,07,14,10,13,22.60
2014,07,14,10,14,22.60
2014,07,14,10,15,22.70
2014,07,14,10,16,22.70
2014,07,14,10,17,22.80
2014,07,14,10,18,22.80
2014,07,14,10,19,22.90
2014,07,14,10,20,22.90
2014,07,14,10,21,23.00
2014,07,14,10,22,23.10
2014,07,14,10,23,23.20
2014,07,14,10,24,23.30
2014,07,14,10,25,23.40
2014,07,14,10,26,23.40
2014,07,14,10,27,23.40
2014,07,14,10,28,23.40
2014,07,14,10,29,23.50
2014,07,14,10,30,23.60
2014,07,14,10,31,23.80
2014,07,14,10,32,23.90
2014,07,14,10,33,24.00
2014,07,14,10,34,24.10
2014,07,14,10,35,24.10
2014,07,14,10,36,24.10
2014,07,14,10,37,24.00
2014,07,14,10,38,24.00
2014,07,14,10,39,24.10
2014,07,14,10,40,24.10
2014,07,14,10,41,24.10
2014,07,14,10,42,24.10
2014,07,14,10,43,24.20
2014,07,14,10,44,24.20
2014,07,14,10,45,24.30
2014,07,14,10,46,24.30
2014,07,14,10,47,24.30
2014,07,14,10,48,24.30
2014,07,14,10,49,24.30
2014,07,14,10,50,24.30
2014,07,14,10,51,24.30
2014,07,14,10,52,24.20
2014,07,14,10,53,24.20
2014,07,14,10,54,24.20
2014,07,14,10,55,24.10
2014,07,14,10,56,24.10
2014,07,14,10,57,24.00
2014,07,14,10,58,23.90
2014,07,14,10,59,23.80
2014,07,14,11,00,23.90
2014,07,14,11,01,23.90
2014,07,14,11,02,23.80
2014,07,14,11,03,23.80
2014,07,14,11,04,23.80
2014,07,14,11,05,23.80
2014,07,14,11,06,23.80
2014,07,14,11,07,23.90
2014,07,14,11,08,23.80
2014,07,14,11,09,23.80
2014,07,14,11,10,23.70
2014,07,14,11,11,23.70
2014,07,14,11,12,23.70
2014,07,14,11,13,23.70
2014,07,14,11,14,23.70
2014,07,14,11,15,23.80
2014,07,14,11,16,23.90
2014,07,14,11,17,24.00
2014,07,14,11,18,24.10
2014,07,14,11,19,24.20
2014,07,14,11,20,24.30
2014,07,14,11,21,24.30
2014,07,14,11,22,24.20
2014,07,14,11,23,24.20
2014,07,14,11,24,24.10
2014,07,14,11,25,24.10
2014,07,14,11,26,24.10
2014,07,14,11,27,24.10
2014,07,14,11,28,24.10
2014,07,14,11,29,24.20
2014,07,14,11,30,24.20
2014,07,14,11,31,24.10
2014,07,14,11,32,24.10
2014,07,14,11,33,24.10
2014,07,14,11,34,24.20
2014,07,14,11,35,24.20
2014,07,14,11,36,24.30
2014,07,14,11,37,24.30
2014,07,14,11,38,24.30
2014,07,14,11,39,24.40
2014,07,14,11,40,24.60
2014,07,14,11,41,24.80
2014,07,14,11,42,24.90
2014,07,14,11,43,25.00
2014,07,14,11,44,25.10
2014,07,14,11,45,25.10
2014,07,14,11,46,25.20
2014,07,14,11,47,25.20
2014,07,14,11,48,25.30
2014,07,14,11,49,25.30
2014,07,14,11,50,25.30
2014,07,14,11,51,25.40
2014,07,14,11,52,25.40
2014,07,14,11,53,25.50
2014,07,14,11,54,25.50
2014,07,14,11,55,25.50
2014,07,14,11,56,25.40
2014,07,14,11,57,25.40
2014,07,14,11,58,25.40
2014,07,14,11,59,25.30
2014,07,14,12,00,25.30
2014,07,14,12,01,25.30
2014,07,14,12,02,25.30
2014,07,14,12,03,25.30
2014,07,14,12,04,25.30
2014,07,14,12,05,25.40
2014,07,14,12,06,25.50
2014,07,14,12,07,25.50
2014,07,14,12,08,25.60
2014,07,14,12,09,25.60
2014,07,14,12,10,25.60
2014,07,14,12,11,25.60
2014,07,14,12,12,25.60
2014,07,14,12,13,25.60
2014,07,14,12,14,25.60
2014,07,14,12,15,25.70
2014,07,14,12,16,25.70
2014,07,14,12,17,25.80
2014,07,14,12,18,25.80
2014,07,14,12,19,25.80
2014,07,14,12,20,25.70
2014,07,14,12,21,25.70
2014,07,14,12,22,25.70
2014,07,14,12,23,25.70
2014,07,14,12,24,25.60
2014,07,14,12,25,25.50
2014,07,14,12,26,25.40
2014,07,14,12,27,25.40
2014,07,14,12,28,25.40
2014,07,14,12,29,25.40
2014,07,14,12,30,25.40
2014,07,14,12,31,25.40
2014,07,14,12,32,25.40
2014,07,14,12,33,25.30
2014,07,14,12,34,25.20
2014,07,14,12,35,25.20
2014,07,14,12,36,25.20
2014,07,14,12,37,25.20
2014,07,14,12,38,25.20
2014,07,14,12,39,25.20
2014,07,14,12,40,25.20
2014,07,14,12,41,25.20
2014,07,14,12,42,25.20
2014,07,14,12,43,25.20
2014,07,14,12,44,25.20
2014,07,14,12,45,25.20
2014,07,14,12,46,25.20
2014,07,14,12,47,25.20
2014,07,14,12,48,25.30
2014,07,14,12,49,25.40
2014,07,14,12,50,25.60
2014,07,14,12,51,25.70
2014,07,14,12,52,25.70
2014,07,14,12,53,25.70
2014,07,14,12,54,25.70
2014,07,14,12,55,25.70
2014,07,14,12,56,25.80
2014,07,14,12,57,25.90
2014,07,14,12,58,26.00
2014,07,14,12,59,26.00
2014,07,14,13,00,26.00
2014,07,14,13,01,25.90
2014,07,14,13,02,25.80
2014,07,14,13,03,25.80
2014,07,14,13,04,25.80
2014,07,14,13,05,25.70
2014,07,14,13,06,25.70
2014,07,14,13,07,25.60
2014,07,14,13,08,25.50
2014,07,14,13,09,25.40
2014,07,14,13,10,25.30
2014,07,14,13,11,25.20
2014,07,14,13,12,25.10
2014,07,14,13,13,25.00
2014,07,14,13,14,25.00
2014,07,14,13,15,25.00
2014,07,14,13,16,24.90
2014,07,14,13,17,24.90
2014,07,14,13,18,24.90
2014,07,14,13,19,24.90
2014,07,14,13,20,24.80
2014,07,14,13,21,24.80
2014,07,14,13,22,24.70
2014,07,14,13,23,24.60
2014,07,14,13,24,24.60
2014,07,14,13,25,24.60
2014,07,14,13,26,24.60
2014,07,14,13,27,24.60
2014,07,14,13,28,24.50
2014,07,14,13,29,24.50
2014,07,14,13,30,24.60
2014,07,14,13,31,24.60
2014,07,14,13,32,24.50
2014,07,14,13,33,24.50
2014,07,14,13,34,24.40
2014,07,14,13,35,24.40
2014,07,14,13,36,24.40
2014,07,14,13,37,24.50
2014,07,14,13,38,24.50
2014,07,14,13,39,24.60
2014,07,14,13,40,24.60
2014,07,14,13,41,24.60
2014,07,14,13,42,24.70
2014,07,14,13,43,24.80
2014,07,14,13,44,24.80
2014,07,14,13,45,24.80
2014,07,14,13,46,24.80
2014,07,14,13,47,24.80
2014,07,14,13,48,24.80
2014,07,14,13,49,24.90
2014,07,14,13,50,24.90
2014,07,14,13,51,24.90
2014,07,14,13,52,24.80
2014,07,14,13,53,24.80
2014,07,14,13,54,24.80
2014,07,14,13,55,24.80
2014,07,14,13,56,24.90
2014,07,14,13,57,25.00
2014,07,14,13,58,25.10
2014,07,14,13,59,25.10
2014,07,14,14,00,25.20
2014,07,14,14,01,25.20
2014,07,14,14,02,25.20
2014,07,14,14,03,25.20
2014,07,14,14,04,25.30
2014,07,14,14,05,25.30
2014,07,14,14,06,25.30
2014,07,14,14,07,25.30
2014,07,14,14,08,25.30
2014,07,14,14,09,25.30
2014,07,14,14,10,25.30
2014,07,14,14,11,25.30
2014,07,14,14,12,25.40
2014,07,14,14,13,25.40
2014,07,14,14,14,25.40
2014,07,14,14,15,25.50
2014,07,14,14,16,25.50
2014,07,14,14,17,25.70
2014,07,14,14,18,25.80
2014,07,14,14,19,25.90
2014,07,14,14,20,26.00
2014,07,14,14,21,25.90
2014,07,14,14,22,25.90
2014,07,14,14,23,26.00
2014,07,14,14,24,26.00
2014,07,14,14,25,26.00
2014,07,14,14,26,25.90
2014,07,14,14,27,25.90
2014,07,14,14,28,25.90
2014,07,14,14,29,25.90
2014,07,14,14,30,26.00
2014,07,14,14,31,26.00
2014,07,14,14,32,26.00
2014,07,14,14,33,26.00
2014,07,14,14,34,26.10
2014,07,14,14,35,26.10
2014,07,14,14,36,26.10
2014,07,14,14,37,26.10
2014,07,14,14,38,26.20
2014,07,14,14,39,26.20
2014,07,14,14,40,26.30
2014,07,14,14,41,26.30
2014,07,14,14,42,26.30
2014,07,14,14,43,26.40
2014,07,14,14,44,26.40
2014,07,14,14,45,26.50
2014,07,14,14,46,26.60
2014,07,14,14,47,26.80
2014,07,14,14,48,26.90
2014,07,14,14,49,26.90
2014,07,14,14,50,27.00
2014,07,14,14,51,27.10
2014,07,14,14,52,27.10
2014,07,14,14,53,27.20
2014,07,14,14,54,27.20
2014,07,14,14,55,27.20
2014,07,14,14,56,27.30
2014,07,14,14,57,27.30
2014,07,14,14,58,27.30
2014,07,14,14,59,27.20
2014,07,14,15,00,27.20
2014,07,14,15,01,27.20
2014,07,14,15,02,27.30
2014,07,14,15,03,27.30
2014,07,14,15,04,27.40
2014,07,14,15,05,27.50
2014,07,14,15,06,27.60
2014,07,14,15,07,27.60
2014,07,14,15,08,27.60
2014,07,14,15,09,27.60
2014,07,14,15,10,27.60
2014,07,14,15,11,27.60
2014,07,14,15,12,27.60
2014,07,14,15,13,27.40
2014,07,14,15,14,27.30
2014,07,14,15,15,27.00
2014,07,14,15,16,26.70
2014,07,14,15,17,26.60
2014,07,14,15,18,26.50
2014,07,14,15,19,26.40
2014,07,14,15,20,26.40
2014,07,14,15,21,26.30
2014,07,14,15,22,26.30
2014,07,14,15,23,26.40
2014,07,14,15,24,26.40
2014,07,14,15,25,26.50
2014,07,14,15,26,26.50
2014,07,14,15,27,26.40
2014,07,14,15,28,26.40
2014,07,14,15,29,26.30
2014,07,14,15,30,26.30
2014,07,14,15,31,26.20
2014,07,14,15,32,26.10
2014,07,14,15,33,25.90
2014,07,14,15,34,25.80
2014,07,14,15,35,25.70
2014,07,14,15,36,25.50
2014,07,14,15,37,25.40
2014,07,14,15,38,25.30
2014,07,14,15,39,25.20
2014,07,14,15,40,25.10
2014,07,14,15,41,25.10
2014,07,14,15,42,25.10
2014,07,14,15,43,25.10
2014,07,14,15,44,25.10
2014,07,14,15,45,25.20
2014,07,14,15,46,25.20
2014,07,14,15,47,25.20
2014,07,14,15,48,25.30
2014,07,14,15,49,25.30
2014,07,14,15,50,25.40
2014,07,14,15,51,25.40
2014,07,14,15,52,25.50
2014,07,14,15,53,25.50
2014,07,14,15,54,25.60
2014,07,14,15,55,25.60
2014,07,14,15,56,25.60
2014,07,14,15,57,25.70
2014,07,14,15,58,25.70
2014,07,14,15,59,25.70
2014,07,14,16,00,25.70
2014,07,14,16,01,25.70
2014,07,14,16,02,25.80
2014,07,14,16,03,25.80
2014,07,14,16,04,25.90
2014,07,14,16,05,26.00
2014,07,14,16,06,26.10
2014,07,14,16,07,26.10
2014,07,14,16,08,26.20
2014,07,14,16,09,26.20
2014,07,14,16,10,26.20
2014,07,14,16,11,26.20
2014,07,14,16,12,26.20
2014,07,14,16,13,26.20
2014,07,14,16,14,26.20
2014,07,14,16,15,26.10
2014,07,14,16,16,26.10
2014,07,14,16,17,26.20
2014,07,14,16,18,26.20
2014,07,14,16,19,26.20
2014,07,14,16,20,26.20
2014,07,14,16,21,26.30
2014,07,14,16,22,26.40
2014,07,14,16,23,26.40
2014,07,14,16,24,26.50
2014,07,14,16,25,26.50
2014,07,14,16,26,26.60
2014,07,14,16,27,26.70
2014,07,14,16,28,26.70
2014,07,14,16,29,26.80
2014,07,14,16,30,26.90
2014,07,14,16,31,26.90
2014,07,14,16,32,27.00
2014,07,14,16,33,27.00
2014,07,14,16,34,27.10
2014,07,14,16,35,27.20
2014,07,14,16,36,27.20
2014,07,14,16,37,27.30
2014,07,14,16,38,27.40
2014,07,14,16,39,27.50
2014,07,14,16,40,27.60
2014,07,14,16,41,27.60
2014,07,14,16,42,27.60
2014,07,14,16,43,27.70
2014,07,14,16,44,27.70
2014,07,14,16,45,27.80
2014,07,14,16,46,27.80
2014,07,14,16,47,27.80
2014,07,14,16,48,27.90
2014,07,14,16,49,27.90
2014,07,14,16,50,27.90
2014,07,14,16,51,27.80
2014,07,14,16,52,27.80
2014,07,14,16,53,27.80
2014,07,14,16,54,27.80
2014,07,14,16,55,27.80
2014,07,14,16,56,27.80
2014,07,14,16,57,27.80
2014,07,14,16,58,27.90
2014,07,14,16,59,27.90
2014,07,14,17,00,27.90
2014,07,14,17,01,27.90
2014,07,14,17,02,27.80
2014,07,14,17,03,27.60
2014,07,14,17,04,27.50
2014,07,14,17,05,27.40
2014,07,14,17,06,27.40
2014,07,14,17,07,27.40
2014,07,14,17,08,27.50
2014,07,14,17,09,27.50
2014,07,14,17,10,27.60
2014,07,14,17,11,27.60
2014,07,14,17,12,27.60
2014,07,14,17,13,27.60
2014,07,14,17,14,27.60
2014,07,14,17,15,27.60
2014,07,14,17,16,27.50
2014,07,14,17,17,27.50
2014,07,14,17,18,27.60
2014,07,14,17,19,27.60